"Pseudo-MPEC" for XL93133

Created 2016 Jun 18 19:55:50 UT using Find_Orb

Astrometry:
     XL93133  C2016 06 14.17987 16 29 45.18 +24 53 41.7          20.5 VqNEOCPG96
     XL93133  C2016 06 14.18405 16 29 44.94 +24 53 42.0         x21.5 VqNEOCPG96
     XL93133  C2016 06 14.18830 16 29 44.60 +24 53 42.3         x21.3 VqNEOCPG96
     XL93133  C2016 06 14.19250 16 29 44.36 +24 53 40.6         x21.3 VqNEOCPG96
     XL93133  C2016 06 14.20827 16 29 43.41 +24 53 37.2         x21.6 VqNEOCPG96
     XL93133  C2016 06 14.21429 16 29 43.10 +24 53 34.8         x20.8 VqNEOCPG96
     XL93133  C2016 06 14.27258 16 29 39.50 +24 53 21.6         x22.4 VqNEOCPI52
     XL93133  C2016 06 14.28009 16 29 39.03 +24 53 19.9         x22.6 VqNEOCPI52
     XL93133  C2016 06 14.29367 16 29 38.29 +24 53 16.9         x22.6 VqNEOCPI52
     XL93133 ^C2016 06 1597Astrometry9N,e!@cRo7l\DTNg(we^p^-EW[hhP[Yi0?Te_q=.695
     XL93133 ^C2016 06 15cdjasN!p:_@Rl?/M.redacted;wXC0G-seeOVMhMjwj.AR'n(dtA695
     XL93133 ^C2016 06 15+L3J\:23r0Dt=M*j15mwhTX]4:!/[`[Heqcw+5a)cY0m#%lNEOCP695
     XL93133  C2016 06 15.40448 16 28 35.08 +24 48 30.9         x20.9 VqNEOCPG96
     XL93133  C2016 06 15.40803 16 28 34.87 +24 48 29.6         x21.0 VqNEOCPG96
     XL93133  C2016 06 15.41162 16 28 34.69 +24 48 28.8         x21.3 VqNEOCPG96
     XL93133  C2016 06 15.41520 16 28 34.46 +24 48 27.4          20.9 VqNEOCPG96

Station data:
(695) Kitt Peak (N31.95849 W111.59467)  US/Arizona.  0.61/0.91-m Burrell
    Schmidt.
(G96) Mt. Lemmon Survey (N32.44287 W110.78872)  US/Arizona.   Observers E. J.
    Christensen, A. R. Gibbs, A. D. Grauer, R. E. Hill, J. A. Johnson, R. A.
    Kowalski, S. M. Larson, F. C. Shelly.  1.5-m reflector + CCD.
(I52) Steward Observatory, Mt. Lemmon Station (N32.44266 W110.78892)  US/Arizona.

Orbital elements:  XL93133
   Perihelion 2016 Jan 18.081548 +/- 697 TT =  1:57:25 (JD 2457405.581548)
Epoch 2016 Jun 15.0 TT = JDT 2457554.5   Earth MOID: 0.1983   Find_Orb
M  67.28369 +/- 300
n   0.45181572 +/- 0.736            Peri.  310.88285 +/- 350
a   1.68200967 +/- 1.83             Node   200.66461 +/- 700
e   0.3373847 +/- 1.42              Incl.   24.63163 +/- 32
P   2.18/796.77d           H 19.0   G  0.15   U 12.6  
q 1.11452528 +/- 1.73    Q 2.24949407 +/- 5.51
3 of 16 observations 2016 June 14-15 (29.6 hr); mean residual 1".6e-11
Residuals in arcseconds: 
160614 G96 0.0    34p-    160614 I52(.813+ .858+)   160615 G96(.025+ .330+)   
160614 G96(.239+ 1.21+)   160614 I52(.751+ .928+)   160615 G96(.043- .078+)   
160614 G96(.821- 2.44+)   160614 I52(2.12+ 1.15+)   160615 G96(.325+ .340+)   
160614 G96(.560- 1.66+)   160615 695 0.0    11p+    160615 G96 0.0    11p-    
160614 G96(.225- 1.75+)   160615 695(.307+ .211+)   
160614 G96(.627+ .694+)   160615 695(.064+ .025+)   

Ephemerides (geocentric):
Date (UTC) HH   RA              Dec         delta   r     elong  mag " sig PA
---- -- -- --  ------------   ------------  ------ ------ -----  --- ---- ---
2016 06 18 20  16 25 39.932   +24 29 20.64  .83580 1.6655 127.9 20.9  317  99
2016 06 18 21  16 25 37.964   +24 29 04.21  .83614 1.6657 127.9 20.9  323  99
2016 06 18 22  16 25 36.000   +24 28 47.71  .83648 1.6659 127.9 20.9  330  99
2016 06 18 23  16 25 34.041   +24 28 31.17  .83682 1.6661 127.8 20.9  337  99
2016 06 19 00  16 25 32.085   +24 28 14.56  .83716 1.6663 127.8 20.9  343  99
2016 06 19 01  16 25 30.134   +24 27 57.91  .83750 1.6665 127.8 20.9  350  99
2016 06 19 02  16 25 28.187   +24 27 41.19  .83785 1.6667 127.8 20.9  357  98
2016 06 19 03  16 25 26.243   +24 27 24.42  .83819 1.6669 127.8 20.9  364  98
2016 06 19 04  16 25 24.304   +24 27 07.60  .83853 1.6670 127.8 20.9  370  98
2016 06 19 05  16 25 22.369   +24 26 50.72  .83887 1.6672 127.7 21.0  377  98
2016 06 19 06  16 25 20.438   +24 26 33.79  .83921 1.6674 127.7 21.0  384  98
2016 06 19 07  16 25 18.511   +24 26 16.80  .83956 1.6676 127.7 21.0  392  98
2016 06 19 08  16 25 16.588   +24 25 59.75  .83990 1.6678 127.7 21.0  399  98
2016 06 19 09  16 25 14.669   +24 25 42.66  .84024 1.6680 127.7 21.0  406  98
2016 06 19 10  16 25 12.754   +24 25 25.50  .84059 1.6682 127.7 21.0  413  98
2016 06 19 11  16 25 10.843   +24 25 08.30  .84093 1.6684 127.6 21.0  421  98
2016 06 19 12  16 25 08.936   +24 24 51.03  .84127 1.6685 127.6 21.0  428  98
2016 06 19 13  16 25 07.034   +24 24 33.72  .84162 1.6687 127.6 21.0  435  98
2016 06 19 14  16 25 05.135   +24 24 16.35  .84196 1.6689 127.6 21.0  443  98
2016 06 19 15  16 25 03.241   +24 23 58.92  .84230 1.6691 127.6 21.0  451  98
2016 06 19 16  16 25 01.350   +24 23 41.44  .84265 1.6693 127.6 21.0  458  98
2016 06 19 17  16 24 59.464   +24 23 23.91  .84299 1.6695 127.5 21.0  466  98
2016 06 19 18  16 24 57.581   +24 23 06.32  .84334 1.6697 127.5 21.0  474  98
2016 06 19 19  16 24 55.703   +24 22 48.68  .84368 1.6699 127.5 21.0  482  98
2016 06 19 20  16 24 53.829   +24 22 30.99  .84402 1.6700 127.5 21.0  489  98
2016 06 19 21  16 24 51.959   +24 22 13.24  .84437 1.6702 127.5 21.0  497  98
2016 06 19 22  16 24 50.093   +24 21 55.44  .84471 1.6704 127.5 21.0  505  98
2016 06 19 23  16 24 48.231   +24 21 37.59  .84506 1.6706 127.4 21.0  513  98
2016 06 20 00  16 24 46.373   +24 21 19.68  .84540 1.6708 127.4 21.0  522  98
2016 06 20 01  16 24 44.519   +24 21 01.72  .84575 1.6710 127.4 21.0  530  98